TIMESTAMP,CO2_1_1_1,H2O_1_1_1,TAU_1_1_1,TAU_SSITC_TEST_1_1_1,H_1_1_1,H_SSITC_TEST_1_1_1,LE_1_1_1,LE_SSITC_TEST_1_1_1,FC_1_1_1,FC_SSITC_TEST_1_1_1,WD_0_0_1,WS_0_0_1,WS_MAX_0_0_1,U_SIGMA_0_0_1,V_SIGMA_0_0_1,W_SIGMA_0_0_1,USTAR_0_0_1,MO_LENGTH_0_0_1,ZL_0_0_1,FETCH_MAX_0_0_1,FETCH_70_0_0_1,FETCH_80_0_0_1,FETCH_90_0_0_1,PA_0_0_1,RH_0_0_1,TA_0_0_1,VPD_0_0_1,T_SONIC_0_0_1,T_SONIC_SIGMA_0_0_1
[yyyymmddHHMMSS],[mmolCO2 mol-1],[mmolH2O mol-1],[kg m-1 s-2],[#],[W m-2],[#],[W m-2],[#],[umolCO2 m-2 s-1],[#],[Decimal degrees],[m s-1],[m s-1],[m s-1],[m s-1],[m s-1],[m s-1],[m],[#],[m],[m],[m],[m],[kPa],[%],[deg C],[hPa],[deg C],[deg C]
20221202003000,425.58822057192918,3.0924791518274524,0.82215494916229637,0,-67.668705379583571,0,17.453702332007591,0,0.94320642793692144,0,138.44557220784509,3.7300917561394682,10.047154694436179,1.6168133008703240,1.4901653772911410,1.0570661450119887,0.82086909447519851,680.02962636733434,2.7939959177214868E-002,102.28037053928880,187.00113799689856,223.79260142522068,280.16178078822185,93.777098704893149,72.748275862068965,-5.7013793103448052,1.0866541204765208,-5.2946358060348757,0.14707171423663926
20221202010000,425.90123836510202,3.0611330300028694,1.2592618982614738,0,-66.074546752095628,0,24.874533772196177,0,0.95103800368560898,0,135.10321123282483,4.5750029119920343,12.051324073672337,2.0653950430130923,1.5892306627982113,1.1431735730377535,1.0158750401625964,1319.4149788655363,1.4400321585204863E-002,113.92981463272616,208.30003719933379,249.28194395577572,312.07141296105948,93.717759910288876,72.983666666666664,-5.8856666666666797,1.0622367188615789,-5.4791317468723264,0.15926819576807741
20221202013000,426.26133562748510,3.1003074198783542,1.3080610018031757,0,-68.561116387960965,0,18.482658947014823,0,1.4963391991354644,1,136.57839880727337,4.2524680154442214,11.674251533981137,1.9240396517143639,1.5228136603980933,1.1667659927591547,1.0350095620376023,1344.7523149632545,1.4128995941173879E-002,113.76885297655720,208.00574795576969,248.92975489375110,311.63051404767907,93.714899255425351,75.047333333333327,-6.0846666666666920,0.96629911471845908,-5.6674480421277735,0.13158000086223534
20221202020000,426.60488667443286,3.1556345885692578,1.0830990605645101,0,-62.143311185495747,0,20.068311549364086,1,1.4349506907185918,1,138.60784597426232,3.8371249380289174,11.569517970425780,1.9456252904970801,1.2805717095412688,0.95754067396702625,0.94190540535450284,1117.9463839318898,1.6995448326578750E-002,123.57623133623269,225.93676350015500,270.38860085510885,338.49444279200355,93.685512250651058,76.576999999999998,-6.1213333333333253,0.90452337138386441,-5.6953116616143120,0.13036838522919519
20221202023000,426.80591759380940,3.2249020277997444,0.81687342016282227,0,-55.509560972264850,0,9.6363443659936330,0,1.0874435364808583,0,139.86551879972069,3.5160030468918699,10.403981752375321,1.6370721354663953,1.2156554353104470,0.95096598351987516,0.81828476923064408,820.41806882282049,2.3158924360676517E-002,111.03157186543118,203.00112507359745,242.94049950231016,304.13267700849423,93.652568913194443,77.703999999999994,-6.0330000000000155,0.86683468238434958,-5.5899961420694808,0.14299985198602139
20221202030000,426.96384949290905,3.2689162344815790,0.70106654532744206,0,-52.973268895987879,0,9.7859765883917085,0,0.97653187851626266,0,142.49527682712755,3.3958327275391698,10.065279999721099,1.4695920452561120,1.1444900542006251,0.89904534066834196,0.75845934949176119,684.42867736908363,2.7760379756493019E-002,109.28875321632744,199.81469673953674,239.12715861159160,299.35882672080618,93.620740917751746,77.649333333333331,-5.8506666666666547,0.88114036216894254,-5.4071499989827316,0.12891227829258300
20221202033000,427.11747660214866,3.2978274510580978,0.75247350845916450,0,-64.781310025113441,0,11.998768506791336,0,1.3171823438508745,0,143.42896002885726,3.0346681666732760,8.0182091130744428,1.4298387571920212,1.1203705665481749,0.90933380962378618,0.78608475673571787,622.95982934782705,3.0499558887915754E-002,111.44272646935748,203.75284682060999,243.84011844107104,305.25889316715609,93.593881378689233,77.535333333333341,-5.7196666666666829,0.89452439024185937,-5.2715185597737673,0.14484374800157476
20221202040000,427.33303321574624,3.3150298217914345,0.48710945864689764,0,-39.969829234889573,0,7.0966773534187340,0,0.88188955436985805,0,139.29118106280777,3.0356394484193312,7.9257833841007814,1.2410808779091462,1.1184759260687078,0.78625507973799691,0.63260723683074549,526.08057214332473,3.6116140770208228E-002,105.22318734921811,192.38154568873222,230.23157525704673,288.22261194923732,93.557426250512236,77.828333333333333,-5.7060000000000173,0.88377720402673221,-5.2675544460249739,0.13101200391008039
20221202043000,427.39621349412317,3.3394733464209572,0.39451056958360847,0,-31.936463326922215,0,6.3701959437450126,0,0.90379194955999986,0,145.86871941726403,2.6946146548201595,7.4420417278168722,1.2007972529747597,0.95769930467504005,0.69724764485637425,0.56953253023380845,480.41132276362470,3.9549442529164765E-002,106.50256880703036,194.72066303140085,233.03090129731575,291.72703597154208,93.545331546440977,77.382000000000005,-5.5356666666666570,0.91333653163425654,-5.0817273534138963,0.15609313707549777
20221202050000,427.34998333716152,3.3644844149379174,0.36765777980995989,0,-35.982845134073216,0,6.1096878131769543,0,1.1009699158758581,0,146.85679636443376,2.5265968230368676,7.3101333669791151,1.1322937678735772,0.90600390019874411,0.69005986510557238,0.55006980924599114,384.14018443411305,4.9461110214203172E-002,104.44309478011542,190.95528767464836,228.52470868556796,286.08581754590153,93.540671786024305,76.554333333333332,-5.2966666666666811,0.96411378419508709,-4.8357069736056815,0.16288739580431358
20221202053000,427.28167616413094,3.3757090249010981,0.33478740472546170,0,-49.158569939435516,0,8.6955231667382797,0,1.1203776922888047,0,147.22214205562631,2.7994284814459851,6.9499442820163910,1.0442174982724519,0.82294270707245221,0.66795233763377448,0.52519696039668762,244.71122027804438,7.7642537103169720E-002,103.30379678111073,188.87228757200768,226.03188956835652,282.96510381983023,93.526419534722223,75.319333333333333,-5.0403333333333649,1.0348233314451942,-4.5936713638305378,0.17716022451218094
20221202060000,427.43661304314639,3.4028572989876169,0.38945497581031935,0,-63.527573702143108,0,6.2239468793061139,0,1.3778237359869556,0,146.30578555726484,3.1717633664057283,7.5508649514779984,1.1270795698441061,0.93460065252049718,0.71247104485852730,0.56646904994396874,237.54726499468441,7.9984082327469286E-002,104.22744065411409,190.56100315296212,228.05285081478149,285.49510748436870,93.494974431857642,76.364999999999995,-5.1209999999999809,0.98493990668897713,-4.6707285368177622,0.19198012444052789
20221202063000,427.63172092628690,3.3923211795085870,0.58323808008999301,0,-68.705593850795566,0,10.786867480997556,0,1.7097722183290713,0,145.17177694582512,3.2553402666040023,7.4877484718836547,1.3293375195964365,1.0581083873199999,0.78977114056225295,0.69330857083231789,402.49954200666571,4.7205022657355829E-002,112.82235146749179,206.27524132602471,246.85878043550662,309.03789977672625,93.433262735243048,76.696333333333328,-5.2276666666666642,0.96330677713908419,-4.7820804279419917,0.17940522530434838
20221202070000,427.84742319753258,3.3915509944132296,0.46533428784999137,0,-49.554547940944737,0,7.9117662728392419,0,1.3755538840954116,0,144.54330266181924,3.4838359885990324,9.0261992213652054,1.2348964641066633,1.0859504935108086,0.77145926293092415,0.61927841842321008,397.58344859594905,4.7788709683709879E-002,105.02997392328638,192.02828992386739,229.80881832928480,287.69337044184141,93.396129885145783,77.271666666666661,-5.3343333333333476,0.93194658580318279,-4.8753994431675096,0.15312775440421483
20221202073000,428.10576411460738,3.3710181862446995,0.51527547476210656,0,-52.411231188216448,0,6.9357816304244677,0,1.0965406752252229,0,139.85455323299610,3.3014693286777543,7.8574092623738805,1.2439605595693999,1.0413309390689325,0.79875137783341044,0.65165914481713305,437.90142348292574,4.3388760531720062E-002,106.40009087221078,194.53330068288966,232.80667641915940,291.44633303158230,93.362139441623270,77.353666666666669,-5.4329999999999927,0.92164858528277882,-4.9896387176513599,0.16179173902121319
20221202080000,428.45820876176072,3.3436589065893534,0.57596994975266580,0,-51.653606201999544,0,5.6886345314747073,0,0.88392700655529721,0,137.05802351353825,3.5164198127377646,8.2155140623633169,1.2565146084679404,1.0926728975912732,0.80909220476994859,0.68894071378839894,524.87404952442273,3.6199160574266337E-002,110.10371349446675,201.30470404622500,240.91031680452130,301.59112918110543,93.324041629557300,77.454666666666668,-5.5626666666666438,0.90853373378865798,-5.1021362508137713,0.16045642050410353
20221202083000,428.87743307436131,3.3482330512401632,0.63326117416396266,0,-63.250301614298692,0,8.6985928689028480,0,1.0590078877541964,0,139.06820314742583,3.7343872000418155,8.8084634802931099,1.4504412190553868,1.0801572102722710,0.81124356195498870,0.72250568401470638,494.26711743775718,3.8440752640990040E-002,114.13186227910650,208.66944473670875,249.72403043001205,312.62485276691393,93.290958895606451,77.602000000000004,-5.5743333333333567,0.90179545352314283,-5.1203241647753543,0.16891969599043216
20221202090000,429.20516773218850,3.3577381469710894,0.52350050037286189,0,-48.100917016225310,0,4.2810682690015849,0,0.61870631536016429,0,136.77631405530997,3.5758775230041162,8.7143706844416844,1.3166607910949455,1.0463268549566085,0.81500047124784236,0.65705258808428357,488.69958126580320,3.8878690975726292E-002,105.39225967609785,192.69066382512133,230.60151071643088,288.68572724624772,93.258974594502106,77.675333333333327,-5.5539999999999736,0.90023480022106184,-5.1013487017285115,0.15394211445570471
20221202093000,429.52382674910734,3.3864492461625710,0.58394227092453244,0,-56.358776493289263,0,4.6230539321333026,0,1.0002686762344468,0,137.84650610866063,3.5336946183795672,7.8287513261762562,1.2936323513505852,1.0649499104091189,0.82497313860310417,0.69402361415032421,491.35307086294529,3.8668731563295207E-002,109.04417007416467,199.36752074987092,238.59200316230300,298.68887560215262,93.209650785373270,78.810333333333332,-5.6396666666666420,0.84891242816160062,-5.1807917065090123,0.14841371313198073
20221202100000,429.67603944340885,3.4329418467476560,0.57774765215494017,0,-53.955798185130199,0,5.2785066936164942,0,1.1871032815437450,0,138.24219970090746,3.1977810129940809,8.2568747905724553,1.3036673783699229,0.99557190050394995,0.80257825614811507,0.69062594782731324,505.56434678531070,3.7581764063889585E-002,111.03484774466062,203.00711442561698,242.94766722697568,304.14165014922236,93.164502498263886,79.290333333333336,-5.5466666666666811,0.83557658264041379,-5.0898620071411074,0.14457684983096075
20221202103000,429.83821983035165,3.5181287015725591,0.57151089956273404,0,-41.912059632584530,0,7.4697617679169639,1,1.3483184671000041,0,146.91682326374263,3.3839345898551643,8.8329709641436498,1.3326523994860280,1.1263882324390055,0.85192467815319184,0.68732520026976285,641.34711824614874,2.9625142858610006E-002,105.45416920339989,192.80385418606051,230.73697066925345,288.85530703291886,93.120238728807223,79.965333333333334,-5.3419999999999845,0.82101794970909681,-4.8769019400165234,0.18306953106134866
20221202110000,429.81917804527006,3.5953082598359209,0.58868340060467905,0,-51.376334295733962,0,6.1177469149648624,0,1.1843299288830034,0,149.03041917885815,3.7819463865891887,9.4586405757066583,1.4517057469355983,1.2548473578057313,0.91490634426569450,0.69813481166900049,548.15661063653818,3.4661627044753784E-002,100.85676263724939,184.39832871551761,220.67770348217385,276.26229819076354,93.089511067708344,79.650999999999996,-5.0083333333333258,0.85527386282619089,-4.5502155956692150,0.16940740266483650
20221202113000,429.88945103575361,3.6226883717061003,0.61315524756262907,0,-49.631759933190338,0,5.8779458455023477,0,1.1730984394984958,0,146.01081307627646,3.6534728942791519,9.3022322277690446,1.4885554990519527,1.2307427222725087,0.93649503250247790,0.71270670455530183,603.45626382691216,3.1485297508569272E-002,100.64198473466284,184.00564620969070,220.20776281521049,275.67398824091356,93.035837402777773,80.213333333333338,-5.0086666666666702,0.83161784651584525,-4.5660124613443713,0.12100066210117268
20221202120000,430.01065666403235,3.6777558841419355,0.95893914534488423,0,-58.260849685666706,0,10.060524030329644,0,1.6205645127134554,0,146.89707375269717,3.7740251349278595,10.567017878522792,1.6783996230230052,1.3587483332403283,1.0224801553387353,0.89189769874523039,1007.0809210331211,1.8866408451575785E-002,112.24914049668584,205.22722885512889,245.60457717396423,307.46778612244833,92.981355883029508,80.160333333333327,-4.8083333333333371,0.84658410444716536,-4.3527591671413575,0.14835212932834038
20221202123000,430.09405144389933,3.7193657175119106,0.58743154860468139,0,-43.667263632067076,0,5.9042899647794584,0,0.94530725749478772,0,146.70684520636854,3.2447761930117265,9.0746663471469429,1.4152372308792884,1.1964998770889532,0.87545793426439944,0.69851940919156430,645.23804250100989,2.9446496871687881E-002,104.52241985320951,191.10031920769882,228.69827438905895,286.30310121061660,92.933574759331592,79.784333333333336,-4.6039999999999850,0.87604911132226793,-4.1626345206366295,0.10968296992327355
20221202130000,430.26526953487240,3.7608260336113957,0.55905108446130025,0,-34.067886697858114,0,4.6706754089540672,1,0.88992163831364690,0,150.01585588964912,3.2214396753442154,8.9366049334716049,1.3127196013699609,1.2689199134435936,0.94369147658198060,0.68169553407804617,768.41357028285336,2.4726268164428813E-002,96.530205974378703,176.48800325131629,211.21106422683874,264.41118919536365,92.881218592222140,80.334666666666664,-4.5556666666666388,0.85531471678132454,-4.1109475043874113,0.10276709853715864
20221202133000,430.30059804439168,3.7931979824580964,0.94156113848818646,0,-72.473993893945433,0,11.070387677322762,0,1.6207356933446722,0,155.87306406619001,3.9736041454345661,10.114537339999140,1.7699019147276360,1.4611820076322795,1.0728154768397933,0.88509160746741344,790.35316974546993,2.4039885872943197E-002,107.35578548305760,196.28061523468051,234.89776566728955,294.06412863256423,92.841388646267362,80.213333333333338,-4.4276666666666529,0.86893980308503505,-3.9766960898505204,0.14578553036819902
20221202140000,430.33705237420696,3.8248431755985126,0.73579320464385289,0,-40.543248134553089,0,10.038508996405930,0,1.2793675183084814,0,148.98509304086889,4.0720044480686992,11.801901469006909,1.6818613543364465,1.3857950809450286,1.0246199071199833,0.78296379067012822,977.39581907032641,1.9439411985691026E-002,100.97131459770721,184.60776623370842,220.92834670035975,276.57607375752605,92.758327482204862,80.038666666666671,-4.3003333333333558,0.88506002037847054,-3.8659104715982835,0.10533659359700766
20221202143000,430.24628425487066,3.8595144618581694,0.99658347426170346,0,-36.174013075857793,0,13.203742589885133,0,1.3723460237819556,0,155.48467134693010,4.2484735450688413,12.041676321945701,1.8400067067921366,1.5916800329184806,1.1741704703602234,0.91183943951703783,1729.7613407872193,1.0984174262648885E-002,102.28328667631769,187.00646962544161,223.79898202286978,280.16976853932925,92.716516141362106,79.259666666666661,-4.0563333333333276,0.93663362923991200,-3.6360484932981763,0.14951197377812056
20221202150000,430.24732472843215,3.9206364394545439,0.94606399517460027,0,-36.455694735123522,0,15.571156609734178,0,1.2923514855262306,0,157.54236073897465,4.3140074336891301,12.079746745048562,1.8322459809645184,1.5501973448117514,1.2028201332733770,0.88959041824107243,1592.9910332577058,1.1927248555281905E-002,98.366320378391336,179.84500598050533,215.22853910321754,269.44059100967843,92.648951822916658,77.481999999999999,-3.5539999999999736,1.0559480537138182,-3.1361221957736234,0.16154365230174089
20221202153000,430.26082875509371,4.0027248777364370,0.92087564758866336,0,-32.525602899539159,0,20.874575551011080,0,1.3821461008436016,0,155.89443220135541,4.1098885954984956,10.643200239841525,1.8419831869527747,1.4053440734023483,1.0825547173584786,0.87853045510492778,1719.3682059982320,1.1050570746694112E-002,105.94988054531370,193.71017261810258,231.82160235545044,290.21313719695945,92.621298497829855,76.518333333333331,-3.1129999999999995,1.1380111095094287,-2.6762578998141180,0.17191022718672586
20221202160000,430.09539546406899,4.1150003907206321,1.0599399939351073,0,-3.1974528169270955,2,31.589299999517095,1,1.4850348227560446,0,155.01609941962425,4.1760089199254971,10.829165845525011,1.8434540519039082,1.4166795943898554,1.1771868506310279,0.94392829053319893,21680.476545168403,8.7636450058724562E-004,104.93727444508616,191.85880571273523,229.60598901543111,287.43945220949854,92.538166019423372,75.471666666666664,-2.5679999999999836,1.2379164865613974,-2.1202354100913681,0.22349796305290925
20221202163000,429.62460625678818,4.2355323308884580,1.2459038943803808,0,-69.141855348999371,1,29.416083225492891,0,2.6195506055339797,0,156.78969050083751,4.8637794195782922,14.806599042465924,2.0308251541575060,1.7391242758873533,1.2674675464455958,1.0253796055507982,1284.2909761426356,1.4794155182080659E-002,105.68495372247649,193.22580189187971,231.24193430617129,289.48746158517497,92.443323889539926,73.343666666666664,-1.8050000000000068,1.4234356079759356,-1.3464531809487994,0.27545207193849336
20221202170000,428.80676368541015,4.2997052221741479,1.1822099675950055,0,-44.428749232773519,0,45.734529468642855,0,2.1708141521288562,0,166.35603752624240,4.5396975760917746,12.770461900832339,2.1800869834838301,1.8080838293277737,1.2947039181312909,1.0003834213117837,1855.7980389574270,1.0238183035624961E-002,101.87126958466752,186.25317097579349,222.89747593440066,279.04118989316999,92.424283938151049,70.269333333333336,-1.0206666666666706,1.6818221604884867,-0.59906118011474518,0.18491663337043762
20221202173000,428.63922912152628,4.3214905743111540,1.1828419932573846,0,-11.445218886405511,1,55.396561982164066,0,0.87178829474395048,0,173.30208141530017,4.2903251259760333,13.324448065772060,2.2114538012410971,1.7557945977361833,1.2057349459249815,1.0015577062528549,7228.4385105577230,2.6285068306590633E-003,107.94293007810653,197.35410281459400,236.18245612789246,295.67240864232326,92.406796944661451,68.377666666666670,-0.58100000000001728,1.8472837149069148,-0.18736626095238762,0.10712849156628673
20221202180000,428.45622119760890,4.4036241985197204,0.89049085388642424,0,-5.2053604519891357,1,53.275356941964631,0,0.90613061313572651,0,166.30391052671962,4.1592377391500985,11.408175218725408,1.9398717180970320,1.6005302697147994,1.1552094430420643,0.86992880167820785,10409.569373256023,1.8252436117880413E-003,99.796034242537132,182.45897890801351,218.35679707944362,273.35679878331797,92.342419756374326,67.753000000000000,-0.20633333333336168,1.9359260655648081,0.16347871816327597,0.12434915961373760
20221202183000,428.12097113194039,4.5159364414098420,1.0015884292225568,0,31.856512492735636,0,52.852727778411655,0,0.58404558961776154,1,171.26501341069076,3.6382211034127376,12.331915607307414,1.8542830623439124,1.4344341295280103,1.1170654465074690,0.92386887308068555,-2036.7866725462434,-9.3284192478771347E-003,107.56730138436338,196.66733376180420,235.36056897496661,294.64350345553760,92.303363320963527,66.377666666666670,0.41733333333331757,2.1119697516256339,0.71140894402407184,0.21367996776530387
20221202190000,427.94066536081613,4.6149270909777114,1.2648486962783154,0,14.998906791485124,1,58.549589779389677,0,0.63059636681474995,0,170.09757707279422,3.9109892445753136,11.791434664293014,1.9495536700871774,1.4956643548851585,1.1747331601402724,1.0393616488641859,-6156.8785599798630,-3.0859793343174439E-003,113.53162854899558,207.57202604333642,248.41070053869058,310.98071958837374,92.243233544053837,65.768000000000001,0.83600000000001273,2.2163251786644098,1.1902898525661953,9.4020823136479539E-002
20221202193000,427.94124165463882,4.6677875488421883,0.94176779870351945,0,-0.22492272506383809,0,40.617084514868452,0,0.31497690412013191,1,176.47908030418250,3.7958163598842125,10.714319386027533,1.8559790327795427,1.4589474804503346,1.1004900956994281,0.89708308246139368,263952.25043036626,7.1982716453529251E-005,106.32909622911318,194.40349983272716,232.65133795311459,291.25186770522714,92.224310801866324,66.118666666666670,0.91733333333331757,2.2065277039302278,1.2665936105516380,6.4196386500495362E-002
20221202200000,428.02390037751400,4.7139344078477690,0.76536451345160561,0,-2.0513465778222586,2,33.682530170583021,0,0.61609385456412180,1,181.53557508074647,3.6986556280913585,10.033696814551849,1.7670886389402758,1.4944727386580261,1.0529758283507071,0.80885444506467297,21214.880412876850,8.9559778939255874E-004,101.39498599107807,185.38237266385087,221.85535275999752,277.73657534165176,92.225497158854168,66.322333333333333,1.0113333333333117,2.2081736166432022,1.3742091683282069,6.1264360487033882E-002
20221202203000,428.02726455598446,4.7859829079550220,0.56086819854095393,0,-17.976520934953509,0,23.796184000338105,0,0.43869353226331365,0,175.63362694801620,3.3343831498064604,9.0942569331956751,1.5575833230960838,1.2778860657889144,0.92636765849586400,0.69235228170902530,1518.2326998722233,1.2514550636143635E-002,99.195025741299730,181.36014368592140,217.04177196503107,271.71054338663021,92.222359856741164,67.658000000000001,0.94466666666664878,2.1104330077048936,1.3425154401509758,6.9825597770698161E-002
20221202210000,428.12831773260143,4.8770954363393928,0.31282174098260174,0,-22.265751150742762,0,17.754241305981349,0,0.56938905343568247,0,165.38922390603582,2.8578938989079496,7.4479564805194132,1.2206371083719385,1.0296549770508889,0.73296003963814860,0.51716508722615373,510.64531338543446,3.7207822145738215E-002,94.731414162469790,173.19923812392307,207.27525233168291,259.48401974305818,92.163072317497083,69.298666666666662,0.86500000000000909,1.9918977241211457,1.2831226062743326,8.3353224136138979E-002
20221202213000,428.34112632840419,4.9303767481952381,0.38186447739379975,0,-42.292784520986672,0,20.856254695235517,0,1.0508533409639655,0,169.14530693952807,3.0077335871140209,9.0455254894782069,1.3634705747477531,1.0656600213559226,0.78194956636389579,0.57120013762326338,362.28729145698992,5.2444566640990342E-002,97.396320025687828,178.07153597001812,213.10614845122521,266.78360976542075,92.187543365885418,70.675333333333327,0.74666666666666970,1.8864011240340448,1.1842195680406462,0.11693545274392662
20221202220000,428.61518255956946,4.9544078936031077,0.30688144299016834,0,-30.919377680009106,0,9.8214297426440496,0,0.55109462322521630,0,174.40584553597961,2.9526381321819732,7.2295883531935878,1.2244030672766821,1.1402773654467000,0.77485628808617446,0.51191097329780200,356.77387187646059,5.3255020890596756E-002,89.873886300703106,164.31812796356161,196.64683173691512,246.17849837267750,92.212760210286461,71.474999999999994,0.66199999999997772,1.8237728628446421,1.1177292497422968,0.11720736881144861
20221202223000,428.91798959714902,4.9836253493659495,0.46596269058906920,0,-54.943529570363218,0,15.099331306239167,0,1.7879769239380507,0,179.73183493044584,2.9791653824825040,8.6256500755559689,1.3867182589549316,1.0367479740761432,0.78786656931742882,0.63052276351345760,375.28101061898633,5.0628727439902994E-002,104.77396460498146,191.56022324002174,229.24866205462067,286.99212125652355,92.251135896050343,72.558333333333337,0.54099999999999682,1.7392290234675687,1.0048160790337874,0.14599643024669606